When you browse on this site, cookies collect data to enhance your experience and personalize the content and advertising you see.
Visit our Privacy Policy to learn more. By continuing to use the site, you agree to this use of cookies and data.
  • In France
  • List of Countries
  • For 7 days
  • Water Temperature
  • Satellite Maps
  • Weather Map
  • Weather Widgets
  • user-avatar
    Login

    Hourly Weather Mansoa

    Today, 24 May, Friday

    Time Temperature Precipitation Wind Pressure Humidity
    00:00 +31°C° 0 mm 2 mps 755 mmHg 47%
    01:00 +30°C° 0 mm 2 mps 756 mmHg 48%
    02:00 +29°C° 0 mm 2 mps 756 mmHg 50%
    03:00 +29°C° 0 mm 2 mps 756 mmHg 52%
    04:00 +28°C° 0 mm 2 mps 756 mmHg 55%
    05:00 +28°C° 0 mm 1 mps 756 mmHg 57%
    06:00 +29°C° 0 mm 1 mps 756 mmHg 51%
    07:00 +31°C° 0 mm 1 mps 757 mmHg 44%
    08:00 +32°C° 0 mm 1 mps 757 mmHg 37%
    09:00 +36°C° 0 mm 1 mps 757 mmHg 31%
    10:00 +40°C° 0 mm 1 mps 757 mmHg 24%
    11:00 +43°C° 0 mm 1 mps 756 mmHg 18%
    12:00 +44°C° 0 mm 1 mps 756 mmHg 16%
    13:00 +45°C° 0 mm 1 mps 755 mmHg 14%
    14:00 +46°C° 0 mm 1 mps 754 mmHg 13%
    15:00 +45°C° 0 mm 3 mps 754 mmHg 19%
    16:00 +42°C° 0 mm 4 mps 754 mmHg 26%
    17:00 +39°C° 0 mm 6 mps 753 mmHg 33%
    18:00 +36°C° 0 mm 5 mps 754 mmHg 40%
    19:00 +34°C° 0 mm 5 mps 755 mmHg 48%
    20:00 +32°C° 0 mm 4 mps 755 mmHg 56%
    21:00 +30°C° 0 mm 4 mps 756 mmHg 57%
    22:00 +30°C° 0 mm 3 mps 756 mmHg 58%
    23:00 +29°C° 0 mm 3 mps 757 mmHg 59%

    Tomorrow, 25 May, Saturday

    Time Temperature Precipitation Wind Pressure Humidity
    00:00 +29°C° 0 mm 3 mps 757 mmHg 61%
    01:00 +28°C° 0 mm 2 mps 757 mmHg 64%
    02:00 +28°C° 0 mm 2 mps 757 mmHg 66%
    03:00 +28°C° 0 mm 2 mps 757 mmHg 67%
    04:00 +28°C° 0 mm 2 mps 757 mmHg 67%
    05:00 +27°C° 0 mm 2 mps 757 mmHg 68%
    06:00 +28°C° 0 mm 1 mps 757 mmHg 62%
    07:00 +30°C° 0 mm 1 mps 757 mmHg 55%
    08:00 +31°C° 0 mm 1 mps 758 mmHg 49%
    09:00 +33°C° 0 mm 1 mps 758 mmHg 42%
    10:00 +36°C° 0 mm 2 mps 757 mmHg 35%
    11:00 +39°C° 0 mm 2 mps 757 mmHg 27%
    12:00 +40°C° 0 mm 2 mps 756 mmHg 26%
    13:00 +42°C° 0 mm 3 mps 756 mmHg 24%
    14:00 +42°C° 0 mm 3 mps 755 mmHg 22%
    15:00 +41°C° 0 mm 4 mps 755 mmHg 27%
    16:00 +39°C° 0 mm 5 mps 755 mmHg 32%
    17:00 +36°C° 0 mm 6 mps 754 mmHg 36%
    18:00 +34°C° 0 mm 5 mps 755 mmHg 44%
    19:00 +32°C° 0 mm 5 mps 755 mmHg 51%
    20:00 +30°C° 0 mm 4 mps 756 mmHg 59%
    21:00 +29°C° 0 mm 4 mps 757 mmHg 60%
    22:00 +29°C° 0 mm 3 mps 757 mmHg 62%
    23:00 +29°C° 0 mm 3 mps 758 mmHg 63%

    Day after tomorrow, 26 May, Sunday

    Time Temperature Precipitation Wind Pressure Humidity
    00:00 +28°C° 0 mm 2 mps 758 mmHg 65%
    01:00 +28°C° 0 mm 2 mps 758 mmHg 67%
    02:00 +28°C° 0 mm 1 mps 758 mmHg 68%
    03:00 +27°C° 0 mm 1 mps 757 mmHg 70%
    04:00 +27°C° 0 mm 1 mps 757 mmHg 71%
    05:00 +25°C° 0 mm 0 mps 757 mmHg 72%
    06:00 +28°C° 0 mm 1 mps 758 mmHg 67%
    07:00 +29°C° 0 mm 1 mps 758 mmHg 62%
    08:00 +30°C° 0 mm 1 mps 758 mmHg 57%
    09:00 +32°C° 0 mm 1 mps 758 mmHg 50%
    10:00 +35°C° 0 mm 1 mps 758 mmHg 43%
    11:00 +38°C° 0 mm 2 mps 758 mmHg 36%
    12:00 +39°C° 0 mm 2 mps 758 mmHg 35%
    13:00 +40°C° 0 mm 2 mps 757 mmHg 34%
    14:00 +40°C° 0 mm 3 mps 756 mmHg 32%
    15:00 +39°C° 0 mm 3 mps 756 mmHg 35%
    16:00 +38°C° 0 mm 4 mps 755 mmHg 38%
    17:00 +37°C° 0 mm 5 mps 755 mmHg 41%
    18:00 +35°C° 0 mm 4 mps 755 mmHg 47%
    19:00 +33°C° 0 mm 4 mps 756 mmHg 53%
    20:00 +30°C° 0 mm 4 mps 757 mmHg 59%
    21:00 +30°C° 0 mm 3 mps 757 mmHg 58%
    22:00 +30°C° 0 mm 3 mps 758 mmHg 58%
    23:00 +30°C° 0 mm 3 mps 758 mmHg 57%

    27 May, Monday

    Time Temperature Precipitation Wind Pressure Humidity
    00:00 +29°C° 0 mm 2 mps 758 mmHg 58%
    01:00 +29°C° 0 mm 2 mps 757 mmHg 58%
    02:00 +29°C° 0 mm 2 mps 757 mmHg 59%
    03:00 +28°C° 0 mm 1 mps 757 mmHg 60%
    04:00 +28°C° 0 mm 1 mps 757 mmHg 60%
    05:00 +28°C° 0 mm 1 mps 757 mmHg 61%
    06:00 +29°C° 0 mm 1 mps 757 mmHg 56%
    07:00 +30°C° 0 mm 1 mps 758 mmHg 51%
    08:00 +31°C° 0 mm 1 mps 758 mmHg 45%
    09:00 +34°C° 0 mm 1 mps 758 mmHg 41%
    10:00 +36°C° 0 mm 1 mps 758 mmHg 36%
    11:00 +39°C° 0 mm 2 mps 758 mmHg 32%
    12:00 +40°C° 0 mm 2 mps 757 mmHg 30%
    13:00 +41°C° 0 mm 2 mps 756 mmHg 29%
    14:00 +43°C° 0 mm 3 mps 755 mmHg 27%
    15:00 +40°C° 0 mm 3 mps 755 mmHg 32%
    16:00 +40°C° 0 mm 4 mps 755 mmHg 36%
    17:00 +37°C° 0 mm 5 mps 754 mmHg 40%
    18:00 +36°C° 0 mm 5 mps 755 mmHg 44%
    19:00 +34°C° 0 mm 4 mps 756 mmHg 48%
    20:00 +33°C° 0 mm 4 mps 756 mmHg 52%
    21:00 +32°C° 0 mm 4 mps 757 mmHg 50%
    22:00 +31°C° 0 mm 3 mps 757 mmHg 49%
    23:00 +31°C° 0 mm 3 mps 757 mmHg 47%

    28 May, Tuesday

    Time Temperature Precipitation Wind Pressure Humidity
    00:00 +30°C° 0 mm 2 mps 757 mmHg 47%
    01:00 +29°C° 0 mm 2 mps 757 mmHg 48%
    02:00 +29°C° 0 mm 1 mps 756 mmHg 48%
    03:00 +28°C° 0 mm 1 mps 757 mmHg 50%
    04:00 +28°C° 0 mm 1 mps 757 mmHg 51%
    05:00 +28°C° 0 mm 1 mps 757 mmHg 52%
    06:00 +29°C° 0 mm 1 mps 757 mmHg 47%
    07:00 +30°C° 0 mm 1 mps 758 mmHg 42%
    08:00 +32°C° 0 mm 2 mps 758 mmHg 37%
    09:00 +35°C° 0 mm 2 mps 758 mmHg 31%
    10:00 +38°C° 0 mm 2 mps 757 mmHg 26%
    11:00 +40°C° 0 mm 2 mps 757 mmHg 21%
    12:00 +41°C° 0 mm 2 mps 756 mmHg 20%
    13:00 +42°C° 0 mm 2 mps 755 mmHg 19%
    14:00 +43°C° 0 mm 2 mps 754 mmHg 18%
    15:00 +43°C° 0 mm 3 mps 754 mmHg 21%
    16:00 +42°C° 0 mm 4 mps 754 mmHg 24%
    17:00 +40°C° 0 mm 5 mps 754 mmHg 27%
    18:00 +39°C° 0 mm 5 mps 755 mmHg 29%
    19:00 +36°C° 0 mm 5 mps 755 mmHg 31%
    20:00 +35°C° 0 mm 5 mps 756 mmHg 32%
    21:00 +34°C° 0 mm 4 mps 757 mmHg 33%
    22:00 +33°C° 0 mm 3 mps 757 mmHg 34%
    23:00 +31°C° 0 mm 2 mps 757 mmHg 35%

    29 May, Wednesday

    Time Temperature Precipitation Wind Pressure Humidity
    00:00 +30°C° 0 mm 2 mps 757 mmHg 38%
    01:00 +29°C° 0 mm 2 mps 756 mmHg 41%
    02:00 +29°C° 0 mm 2 mps 756 mmHg 43%
    03:00 +28°C° 0 mm 2 mps 756 mmHg 45%
    04:00 +27°C° 0 mm 2 mps 756 mmHg 47%
    05:00 +27°C° 0 mm 1 mps 756 mmHg 49%
    06:00 +28°C° 0 mm 2 mps 757 mmHg 44%
    07:00 +30°C° 0 mm 2 mps 757 mmHg 39%
    08:00 +31°C° 0 mm 2 mps 757 mmHg 33%
    09:00 +35°C° 0 mm 2 mps 757 mmHg 28%
    10:00 +38°C° 0 mm 2 mps 757 mmHg 22%
    11:00 +41°C° 0 mm 2 mps 756 mmHg 16%
    12:00 +42°C° 0 mm 2 mps 755 mmHg 16%
    13:00 +43°C° 0 mm 2 mps 755 mmHg 15%
    14:00 +45°C° 0 mm 2 mps 754 mmHg 14%
    15:00 +44°C° 0 mm 3 mps 753 mmHg 19%
    16:00 +42°C° 0 mm 4 mps 753 mmHg 23%
    17:00 +40°C° 0 mm 4 mps 753 mmHg 28%
    18:00 +38°C° 0 mm 4 mps 754 mmHg 31%
    19:00 +36°C° 0 mm 4 mps 754 mmHg 34%
    20:00 +34°C° 0 mm 4 mps 755 mmHg 37%
    21:00 +33°C° 0 mm 3 mps 755 mmHg 39%
    22:00 +31°C° 0 mm 3 mps 756 mmHg 40%
    23:00 +30°C° 0 mm 2 mps 756 mmHg 41%
    Show more